Location: Chrome
(40.5765°N, 74.2163°W)
Time: 07:45:03
(UTC+00:00)

Okean O Rocket - Pass Details

Date: 06 December 2019
Orbit: 624 x 644 km, 98.2° (Epoch: 21 January)

Event Time Altitude Azimuth Distance (km) Brightness Sun altitude
Rises 21:53:13 0° 174° (S) 2,896 5.3 -4.8°
Reaches altitude 10° 21:55:26 10° 178° (S) 1,992 4.5 -5.2°
Maximum altitude 21:59:43 61° 259° (W) 714 2.3 -5.9°
Drops below altitude 10° 22:04:01 10° 340° (NNW) 2,003 4.2 -6.6°
Sets 22:06:15 0° 344° (NNW) 2,914 4.9 -7.0°
